Change the Weather History Date:

Monday, March 3, 2014

  Actual Average Record
Temperature  
Mean Temperature 62 °F -  
Max Temperature 73 °F 67 °F 82 °F (1999)
Min Temperature 50 °F 45 °F 34 °F (2002)
Degree Days  
Heating Degree Days 4    
Growing Degree Days 12 (Base 50)    
Moisture  
Dew Point 44 °F    
Average Humidity 57    
Maximum Humidity 86    
Minimum Humidity 28    
Precipitation  
Precipitation 0.00 in - - ()
Sea Level Pressure  
Sea Level Pressure 29.98 in    
Wind  
Wind Speed 1 mph (West)    
Max Wind Speed 7 mph    
Max Gust Speed -    
Visibility 10 miles    
Events      
Averages and records for this station are not official NWS values.
T = Trace of Precipitation, MM = Missing Value Source: NWS Daily Summary

Daily Weather History Graph

Daily Weather History Graph

Search for Another Location

Airport or City:

Trip Planner

Search our weather history database for the weather conditions in past years. The results will help you decide how hot, cold, wet, or windy it might be!

Date:

Astronomy

Mar. 03, 2014 Rise Set
Actual Time 6:53 AM MST 6:26 PM MST
Civil Twilight 6:28 AM MST 6:50 PM MST
Nautical Twilight 5:59 AM MST 7:19 PM MST
Astronomical Twilight 5:30 AM MST 7:48 PM MST
Moon 8:13 AM MST (3/3) 9:22 PM MST (3/3)
Length of Visible Light 12h 22m
Length of Day
11h 32m
Waxing Crescent, 8% of the Moon is Illuminated
Mar 3
Waxing Crescent
Mar 8
First Quarter
Mar 16
Full
Mar 23
Last Quarter
Mar 30
New

Hourly Weather History & Observations

Time (MST) Temp. Dew Point Humidity Pressure Visibility Wind Dir Wind Speed Gust Speed Precip Events Conditions
12:53 AM 55.9 °F 48.0 °F 75% 30.06 in 10.0 mi Calm Calm - N/A   Clear
1:53 AM 55.0 °F 48.9 °F 80% 30.04 in 10.0 mi Calm Calm - N/A   Clear
2:53 AM 54.0 °F 48.0 °F 80% 30.01 in 10.0 mi NW 3.5 mph - N/A   Clear
3:53 AM 52.0 °F 46.0 °F 80% 30.00 in 10.0 mi Calm Calm - N/A   Clear
4:53 AM 51.1 °F 46.0 °F 83% 30.00 in 10.0 mi Calm Calm - N/A   Clear
5:53 AM 50.0 °F 46.0 °F 86% 30.01 in 10.0 mi Calm Calm - N/A   Clear
6:53 AM 51.1 °F 46.0 °F 83% 30.02 in 10.0 mi Calm Calm - N/A   Clear
7:53 AM 52.0 °F 46.0 °F 80% 30.03 in 10.0 mi Calm Calm - N/A   Clear
8:53 AM 55.0 °F 46.9 °F 74% 30.04 in 10.0 mi Calm Calm - N/A   Clear
9:53 AM 61.0 °F 45.0 °F 56% 30.03 in 10.0 mi Calm Calm - N/A   Clear
10:53 AM 64.9 °F 44.1 °F 47% 30.02 in 10.0 mi Calm Calm - N/A   Clear
11:53 AM 66.9 °F 42.1 °F 40% 30.01 in 10.0 mi Calm Calm - N/A   Clear
12:53 PM 69.1 °F 39.9 °F 35% 29.99 in 10.0 mi Calm Calm - N/A   Clear
1:53 PM 70.0 °F 39.9 °F 33% 29.95 in 10.0 mi Calm Calm - N/A   Clear
2:53 PM 72.0 °F 41.0 °F 33% 29.94 in 10.0 mi South 6.9 mph - N/A   Clear
3:53 PM 72.0 °F 39.0 °F 30% 29.92 in 10.0 mi West 4.6 mph - N/A   Clear
4:53 PM 73.0 °F 37.9 °F 28% 29.91 in 10.0 mi SW 5.8 mph - N/A   Clear
5:53 PM 71.1 °F 39.0 °F 31% 29.92 in 10.0 mi WSW 5.8 mph - N/A   Clear
6:53 PM 69.1 °F 41.0 °F 36% 29.94 in 10.0 mi Variable 4.6 mph - N/A   Clear
7:53 PM 66.9 °F 42.1 °F 40% 29.95 in 10.0 mi WNW 3.5 mph - N/A   Clear
8:53 PM 64.9 °F 44.1 °F 47% 29.95 in 10.0 mi North 3.5 mph - N/A   Clear
9:53 PM 64.0 °F 45.0 °F 50% 29.95 in 10.0 mi Calm Calm - N/A   Clear
10:53 PM 61.0 °F 46.9 °F 60% 29.95 in 10.0 mi Calm Calm - N/A   Clear
11:53 PM 57.9 °F 48.0 °F 70% 29.94 in 10.0 mi Calm Calm - N/A   Clear